SCP
0 0 0 0 0 0 0 0 0 -0 -0 0 0 0 0 0 0 0 0 0 0 0 0 0 0 0 0 0 0 0 0 0 0 0 0 0 0 0 0 0 0 0 0
0 0 0 0 0 0 0 0 -0 -0 0 0 0 0 0 0 0 0 0 0 0 0 0 0 0 0 0 0 0 0 0 0 0 0 0 0 0 0 0 0 0 0 0
0 0 0 0 0 0 0 -0 0 0 -0 -0 0 0 0 0 0 0 0 0 0 0 0 0 0 0 0 0 0 0 0 0 0 0 0 0 0 0 0 0 0 0 0
0 0 0 0 0 0 0 0 0 0 0 0 0 0 0 0 0 0 0 0 0 0 -0 0 0 0 0 0 0 0 0 0 0 0 0 0 0 0 0 0 0 0 0
0 0 0 0 0 0 0 0 0 0 0 0 0 -0 -0 0 0 0 0 0 0 0 0 0 0 0 0 0 0 0 0 0 0 0 0 0 0 0 0 0 0 0 0
0 0 0 0 0 0 0 0 0 0 0 0 -0 -0 -0 -0 -0 -0 -0 0 0 -0 0 0 0 0 0 0 0 0 0 0 0 0 0 0 0 0 0 0 0 0 0
0 0 0 0 0 0 0 0 0 0 0 0 0 0 0 0 -0 -0 -0 -0 0 0 -0 -0 -0 0 -0 -0 0 0 0 0 0 0 0 0 0 0 0 0 0 0 0
0 0 0 0 0 0 0 0 0 0 0 0 0 0 0 0 -0 -0 -0 0 0 0 0 -0 -0 -0 -0 -0 -0 -0 -0 0 0 0 0 0 0 0 0 0 0 -0 -0
0 0 0 0 0 0 0 0 0 0 0 0 0 0 0 0 0 0 0 0 0 -0 -0 0 -0 -0 -0 -0 -0 -0 -0 -0 0 0 0 0 0 -0 0 0 0 0 -0
0 0 0 0 0 0 0 0 0 0 0 0 0 0 0 0 0 0 0 0 0 0 0 0 -0 0 -0 -0 -0 -0 -0 -0 -0 0 0 0 0 0 -0 -0 0 0 0
0 0 0 0 0 0 0 0 0 0 0 0 0 0 0 0 0 0 0 0 0 0 0 0 0 0 0 0 -0 -0 0 0 0 0 0 0 0 0 0 0 0 -0 -0
0 0 0 0 0 0 0 0 0 0 0 0 0 0 0 0 0 0 0 0 0 0 0 0 0 0 0 0 0 0 -0 0 0 0 0 0 0 0 0 0 -0 0 0
0 0 0 0 0 0 0 0 0 0 0 0 0 0 0 0 0 0 0 0 0 0 0 0 0 0 0 0 0 0 0 0 0 0 0 0 0 0 0 0 -0 0 0
0 0 0 0 0 0 0 0 0 0 0 0 0 0 0 0 0 0 0 0 0 0 0 0 0 0 0 0 0 0 0 0 0 0 0 0 0 0 0 0 0 0 0
0 0 0 0 0 0 0 0 0 0 0 0 0 0 0 0 0 0 0 0 0 0 0 0 0 0 0 0 0 0 0 0 0 0 0 0 0 0 0 0 0 0 -0
0 0 0 0 0 0 0 0 0 0 0 0 0 0 0 0 0 0 0 0 0 0 0 0 0 0 0 0 0 0 0 0 0 0 0 0 0 0 0 0 0 -0 -0
0 0 0 0 0 0 0 0 0 0 0 0 0 0 0 0 0 0 0 0 0 0 0 0 0 0 0 0 0 0 0 0 0 0 0 0 0 0 0 0 0 0 -0
0 0 0 0 0 0 0 0 0 0 0 0 0 0 0 0 0 0 0 0 0 0 0 0 0 0 0 0 0 0 0 0 0 0 0 0 0 0 0 0 0 -0 -0
0 0 0 0 0 0 0 0 0 0 0 0 0 0 0 0 0 0 -0 0 0 0 0 0 0 0 0 0 0 0 0 0 0 0 0 0 0 0 0 -0 -0 -0 0
0 0 0 0 0 0 0 0 0 0 0 0 0 0 0 0 0 -0 0 0 0 0 0 0 0 0 0 0 0 0 0 -0 0 0 0 0 0 -0 0 -0 -0 0 0
0 0 0 0 0 0 0 0 0 0 0 0 0 0 0 0 0 0 0 0 0 0 0 0 0 0 0 0 0 0 0 0 -0 -0 -0 -0 0 -0 -0 -0 -0 -0 -0
0 0 0 0 0 0 0 0 0 0 0 0 0 0 0 0 0 0 0 0 0 0 0 0 0 0 0 0 0 0 0 -0 -0 -0 -0 -0 -0 -0 0 -0 -0 -0 -0
0 0 0 0 0 0 0 0 0 0 0 0 0 0 0 0 0 0 0 0 0 0 0 0 0 0 0 0 0 -0 0 0 0 -0 -0 -0 -0 0 -0 0 -0 -0 -0
0 0 0 0 0 0 0 0 0 0 0 0 0 0 0 0 0 0 0 0 0 0 0 0 0 0 0 0 -0 -0 0 0 0 0 -0 -0 -0 0 -0 0 -0 -0 -0
0 0 0 0 0 0 0 0 0 0 0 0 -0 0 0 0 0 0 0 0 0 0 0 0 0 0 0 -0 -0 0 0 0 -0 -0 -0 -0 -0 -0 -0 -0 -0 -0 -0
0 0 0 0 0 0 0 0 0 0 0 0 0 -0 -0 -0 -0 -0 0 0 0 0 0 0 0 0 0 -0 -0 -0 0 0 0 -0 -0 -0 -0 -0 -0 -0 -0 -0 0
Wind_Speed_500mb
41 50 51 49 46 50 47 49 49 50 52 42 46 42 35 35 34 35 31 30 29 26 22 22 24 21 18 15 11 15 14 28 27 32 36 36 31 33 26 10 8 4 6
50 41 51 55 50 51 48 53 57 54 48 43 41 43 40 34 32 33 36 36 35 33 32 28 25 23 22 18 13 21 26 38 50 45 35 33 27 12 13 24 15 4 6
41 47 45 49 53 50 55 59 57 48 49 50 48 39 40 35 30 36 42 45 45 41 37 39 35 25 17 16 19 16 19 27 26 39 37 33 20 12 11 11 19 13 6
43 52 50 47 48 47 56 51 53 50 55 56 52 44 30 30 30 33 37 36 37 42 41 48 50 43 31 23 16 21 28 17 12 13 23 20 20 25 34 25 20 23 19
53 54 45 44 45 52 48 51 45 53 59 55 59 51 44 33 36 34 30 27 30 31 35 30 39 42 48 41 28 22 26 22 19 17 31 37 27 19 10 15 21 14 22
48 43 43 47 44 44 45 43 45 48 47 55 55 63 55 49 42 37 38 35 30 35 33 34 27 32 32 38 37 33 16 18 29 28 19 21 23 19 12 18 25 18 19
35 41 42 42 44 45 44 45 47 47 46 49 51 52 56 49 45 48 52 46 39 37 34 31 29 30 29 33 35 29 27 25 25 23 27 23 24 24 28 29 24 20 20
34 37 36 40 45 50 52 54 52 45 41 42 43 47 45 45 39 40 36 33 34 35 38 34 28 31 29 29 31 26 31 25 15 15 18 21 22 30 21 22 20 18 17
33 31 35 37 41 44 48 52 52 54 45 44 40 42 39 45 38 32 34 34 34 36 38 41 39 37 33 27 29 26 28 30 30 27 23 24 24 20 15 17 16 16 14
30 26 28 35 41 43 49 60 51 42 43 44 49 47 54 49 54 50 39 35 34 36 39 42 41 38 36 29 24 22 23 22 24 25 27 22 17 13 7 10 14 18 15
20 25 30 35 41 41 43 46 44 48 49 46 45 46 47 58 51 55 49 43 40 35 36 34 39 39 41 36 30 23 23 23 15 16 25 24 16 11 13 14 9 6 5
20 22 26 34 35 37 43 43 48 46 52 51 51 47 49 48 49 50 52 52 39 35 35 47 44 36 38 38 37 29 21 21 21 19 17 16 17 18 23 24 20 16 13
21 25 24 27 33 34 36 38 41 45 48 52 55 62 64 61 56 51 57 62 55 46 37 34 43 43 33 32 33 32 24 18 19 21 18 18 19 21 21 18 18 19 21
24 24 22 23 27 28 26 28 42 40 39 38 47 49 47 51 53 56 55 51 51 60 57 38 36 36 42 44 27 37 34 25 25 23 22 24 21 19 15 11 11 23 32
18 20 16 16 20 21 25 34 36 37 41 48 43 35 45 51 52 47 49 52 45 33 43 45 55 44 41 43 44 39 45 34 28 23 22 20 20 16 16 18 23 29 37
13 10 16 12 20 18 19 27 27 29 35 40 41 44 39 34 37 45 43 47 44 37 40 46 42 48 42 39 37 39 35 35 39 27 22 20 18 16 20 20 24 26 25
13 10 10 12 7 11 22 19 25 24 22 24 35 36 37 38 41 40 40 43 40 40 46 37 43 40 41 40 32 35 34 33 25 32 37 28 23 20 20 22 21 17 14
10 16 11 12 10 12 15 20 20 24 24 29 27 32 31 36 37 36 43 37 49 43 42 42 39 39 37 35 28 31 32 30 29 24 22 28 29 23 18 18 16 16 19
11 10 10 12 12 15 19 18 17 18 16 19 24 30 28 38 31 43 42 46 48 39 40 39 38 39 38 34 23 28 29 22 24 18 23 15 19 20 18 15 13 15 17
18 15 16 11 13 12 14 16 18 21 23 19 26 36 30 32 38 43 40 38 43 39 34 33 35 33 38 37 30 22 24 22 24 20 16 12 13 15 11 9 4 4 8
8 8 11 10 14 14 14 16 17 23 20 21 21 24 30 34 43 45 42 38 35 35 34 32 33 27 32 36 32 25 23 25 18 17 18 13 11 17 16 5 5 5 6
4 3 10 10 13 16 15 18 18 18 22 23 24 29 32 37 36 33 30 37 33 31 29 28 28 30 32 35 33 28 22 21 20 16 12 14 7 15 13 14 12 11 12
3 8 8 10 15 13 16 19 21 21 23 24 27 29 32 30 29 29 34 34 29 28 26 24 31 28 28 34 31 31 26 24 21 16 10 13 17 16 16 14 18 17 21
8 8 8 11 13 13 13 17 17 19 21 22 27 30 33 28 24 28 29 27 26 25 26 28 28 28 26 32 28 28 25 24 21 14 13 5 8 8 7 8 5 9 8
11 9 11 18 17 19 22 25 24 26 28 26 25 27 25 25 26 31 35 29 28 23 24 23 23 27 19 29 25 22 23 21 21 15 12 5 6 6 6 7 3 1 3
8 11 11 13 18 17 17 21 22 23 23 22 21 26 26 28 31 30 33 34 36 37 41 29 28 23 24 25 20 16 18 16 17 15 10 3 4 4 5 2 1 3 12
Wind_Direction_500mb
7 355 4 5 5 9 7 5 0 354 355 1 6 7 5 13 21 29 36 32 36 42 49 43 44 34 35 44 47 33 275 193 192 154 147 141 131 150 132 113 118 97 289
6 358 3 9 12 7 5 2 358 358 7 11 15 12 9 13 25 33 32 25 23 21 22 26 30 37 39 40 46 71 82 106 112 113 125 123 132 115 118 144 111 97 287
5 2 9 11 10 6 2 358 0 11 20 18 15 12 9 9 30 40 41 38 34 30 29 27 29 32 37 52 55 64 106 120 117 113 114 119 120 82 91 89 128 97 148
357 357 358 6 11 8 7 9 17 25 23 12 12 11 9 0 20 30 30 31 36 34 28 47 50 47 43 52 74 84 83 94 151 145 109 104 120 142 136 128 130 156 118
356 356 25 22 18 7 13 18 30 30 25 25 21 14 20 32 35 30 36 34 47 49 42 40 46 46 47 49 65 84 102 104 117 96 117 136 114 121 158 135 121 102 141
15 22 17 20 19 21 27 29 26 18 18 26 32 37 49 46 45 48 50 46 57 56 52 42 47 48 48 50 58 69 83 105 99 95 105 111 99 94 108 128 125 116 108
16 34 38 32 33 31 31 28 27 26 27 36 38 35 34 36 44 54 55 57 59 51 48 49 40 46 50 57 56 54 66 80 87 95 109 107 109 95 92 115 118 110 108
23 39 30 27 32 36 38 36 34 32 30 34 38 36 34 30 38 42 40 37 37 33 36 35 37 43 50 49 60 66 70 68 81 103 111 103 107 103 107 114 106 118 120
24 37 28 26 19 22 30 28 19 25 37 42 37 35 33 32 33 32 35 36 32 31 35 40 44 46 46 49 71 73 69 74 76 86 102 107 97 97 99 95 98 112 144
31 27 38 22 26 38 32 35 29 33 37 45 41 44 42 41 42 40 46 36 36 33 37 38 42 40 42 42 61 66 78 77 90 95 104 111 99 83 87 96 85 89 89
18 36 32 33 26 31 33 30 37 49 49 44 46 48 41 45 45 36 43 52 47 45 40 31 34 42 39 43 56 72 67 66 87 119 102 96 97 63 56 63 83 104 70
28 44 38 36 28 30 34 37 39 44 44 46 49 49 47 49 35 29 25 37 36 37 45 41 39 41 45 50 56 63 59 68 65 86 98 87 74 69 68 65 52 47 40
39 45 44 18 31 30 27 32 35 46 53 55 55 53 52 52 47 44 38 41 41 43 47 37 38 42 43 52 49 50 54 67 68 80 86 78 72 68 72 63 49 49 66
48 48 36 29 23 38 35 30 36 45 48 46 47 42 41 39 39 41 39 41 51 46 40 37 44 41 50 52 52 45 42 67 66 70 73 71 74 71 74 71 79 88 86
48 33 29 35 11 19 22 46 34 47 49 48 45 37 37 32 28 32 36 30 22 27 23 34 41 42 48 51 55 53 48 57 62 62 66 70 74 71 83 94 96 100 94
62 52 35 47 9 33 12 358 16 44 43 44 46 46 47 36 28 32 33 27 24 33 40 32 32 35 40 44 45 50 52 53 52 60 67 73 82 79 90 96 104 108 95
38 21 44 30 29 16 14 6 11 8 14 24 40 38 33 26 27 30 28 25 29 25 32 39 34 31 37 31 42 51 42 48 56 53 57 64 73 76 90 98 104 97 85
349 24 37 18 34 349 17 12 13 28 25 17 34 19 20 23 25 27 15 22 24 30 33 29 33 30 33 29 45 43 31 44 55 59 53 52 57 66 74 82 89 90 87
48 19 28 14 5 27 25 13 1 3 12 37 26 9 15 22 11 19 9 20 20 29 27 29 26 24 26 25 32 40 33 37 32 35 48 64 50 37 40 59 82 101 87
36 49 45 32 2 1 5 3 9 10 11 21 5 22 19 2 7 353 1 17 8 22 26 23 19 30 13 19 26 39 34 39 29 49 38 63 50 30 13 12 63 93 82
307 358 12 24 4 1 3 1 10 8 20 10 0 354 360 359 359 359 357 3 5 15 22 25 18 23 11 13 23 29 33 30 44 59 45 46 59 34 29 18 51 78 103
259 17 359 18 358 352 349 355 355 356 349 338 346 347 349 357 360 1 357 356 4 10 18 19 19 21 16 3 12 20 22 16 24 32 43 34 52 28 60 55 66 74 103
356 337 339 353 332 329 359 343 346 344 345 346 348 346 345 348 352 353 352 357 2 13 21 17 11 9 13 356 2 12 17 19 19 22 50 36 79 57 61 59 89 85 85
319 344 324 324 308 315 322 319 325 343 349 340 347 346 341 346 4 352 355 351 351 3 356 348 352 357 360 346 357 4 12 18 22 25 20 57 83 106 88 94 74 67 52
310 313 331 313 323 318 321 327 318 320 321 329 348 352 356 1 353 344 341 354 358 352 347 340 351 345 339 336 349 0 8 8 11 22 27 95 123 105 123 293 225 185 26
336 326 331 325 325 340 334 321 326 331 338 333 351 352 339 344 345 345 357 1 1 355 356 349 351 346 343 347 357 358 1 12 16 21 24 343 6 147 140 137 333 249 297
Wind_Speed_850mb
41 50 51 49 46 50 47 49 49 50 52 42 46 42 35 35 34 35 31 30 29 26 22 22 24 21 18 15 11 15 14 28 27 32 36 36 31 33 26 10 8 4 6
50 41 51 55 50 51 48 53 57 54 48 43 41 43 40 34 32 33 36 36 35 33 32 28 25 23 22 18 13 21 26 38 50 45 35 33 27 12 13 24 15 4 6
41 47 45 49 53 50 55 59 57 48 49 50 48 39 40 35 30 36 42 45 45 41 37 39 35 25 17 16 19 16 19 27 26 39 37 33 20 12 11 11 19 13 6
43 52 50 47 48 47 56 51 53 50 55 56 52 44 30 30 30 33 37 36 37 42 41 48 50 43 31 23 16 21 28 17 12 13 23 20 20 25 34 25 20 23 19
53 54 45 44 45 52 48 51 45 53 59 55 59 51 44 33 36 34 30 27 30 31 35 30 39 42 48 41 28 22 26 22 19 17 31 37 27 19 10 15 21 14 22
48 43 43 47 44 44 45 43 45 48 47 55 55 63 55 49 42 37 38 35 30 35 33 34 27 32 32 38 37 33 16 18 29 28 19 21 23 19 12 18 25 18 19
35 41 42 42 44 45 44 45 47 47 46 49 51 52 56 49 45 48 52 46 39 37 34 31 29 30 29 33 35 29 27 25 25 23 27 23 24 24 28 29 24 20 20
34 37 36 40 45 50 52 54 52 45 41 42 43 47 45 45 39 40 36 33 34 35 38 34 28 31 29 29 31 26 31 25 15 15 18 21 22 30 21 22 20 18 17
33 31 35 37 41 44 48 52 52 54 45 44 40 42 39 45 38 32 34 34 34 36 38 41 39 37 33 27 29 26 28 30 30 27 23 24 24 20 15 17 16 16 14
30 26 28 35 41 43 49 60 51 42 43 44 49 47 54 49 54 50 39 35 34 36 39 42 41 38 36 29 24 22 23 22 24 25 27 22 17 13 7 10 14 18 15
20 25 30 35 41 41 43 46 44 48 49 46 45 46 47 58 51 55 49 43 40 35 36 34 39 39 41 36 30 23 23 23 15 16 25 24 16 11 13 14 9 6 5
20 22 26 34 35 37 43 43 48 46 52 51 51 47 49 48 49 50 52 52 39 35 35 47 44 36 38 38 37 29 21 21 21 19 17 16 17 18 23 24 20 16 13
21 25 24 27 33 34 36 38 41 45 48 52 55 62 64 61 56 51 57 62 55 46 37 34 43 43 33 32 33 32 24 18 19 21 18 18 19 21 21 18 18 19 21
24 24 22 23 27 28 26 28 42 40 39 38 47 49 47 51 53 56 55 51 51 60 57 38 36 36 42 44 27 37 34 25 25 23 22 24 21 19 15 11 11 23 32
18 20 16 16 20 21 25 34 36 37 41 48 43 35 45 51 52 47 49 52 45 33 43 45 55 44 41 43 44 39 45 34 28 23 22 20 20 16 16 18 23 29 37
13 10 16 12 20 18 19 27 27 29 35 40 41 44 39 34 37 45 43 47 44 37 40 46 42 48 42 39 37 39 35 35 39 27 22 20 18 16 20 20 24 26 25
13 10 10 12 7 11 22 19 25 24 22 24 35 36 37 38 41 40 40 43 40 40 46 37 43 40 41 40 32 35 34 33 25 32 37 28 23 20 20 22 21 17 14
10 16 11 12 10 12 15 20 20 24 24 29 27 32 31 36 37 36 43 37 49 43 42 42 39 39 37 35 28 31 32 30 29 24 22 28 29 23 18 18 16 16 19
11 10 10 12 12 15 19 18 17 18 16 19 24 30 28 38 31 43 42 46 48 39 40 39 38 39 38 34 23 28 29 22 24 18 23 15 19 20 18 15 13 15 17
18 15 16 11 13 12 14 16 18 21 23 19 26 36 30 32 38 43 40 38 43 39 34 33 35 33 38 37 30 22 24 22 24 20 16 12 13 15 11 9 4 4 8
8 8 11 10 14 14 14 16 17 23 20 21 21 24 30 34 43 45 42 38 35 35 34 32 33 27 32 36 32 25 23 25 18 17 18 13 11 17 16 5 5 5 6
4 3 10 10 13 16 15 18 18 18 22 23 24 29 32 37 36 33 30 37 33 31 29 28 28 30 32 35 33 28 22 21 20 16 12 14 7 15 13 14 12 11 12
3 8 8 10 15 13 16 19 21 21 23 24 27 29 32 30 29 29 34 34 29 28 26 24 31 28 28 34 31 31 26 24 21 16 10 13 17 16 16 14 18 17 21
8 8 8 11 13 13 13 17 17 19 21 22 27 30 33 28 24 28 29 27 26 25 26 28 28 28 26 32 28 28 25 24 21 14 13 5 8 8 7 8 5 9 8
11 9 11 18 17 19 22 25 24 26 28 26 25 27 25 25 26 31 35 29 28 23 24 23 23 27 19 29 25 22 23 21 21 15 12 5 6 6 6 7 3 1 3
8 11 11 13 18 17 17 21 22 23 23 22 21 26 26 28 31 30 33 34 36 37 41 29 28 23 24 25 20 16 18 16 17 15 10 3 4 4 5 2 1 3 12
Wind_Direction_850mb
7 355 4 5 5 9 7 5 0 354 355 1 6 7 5 13 21 29 36 32 36 42 49 43 44 34 35 44 47 33 275 193 192 154 147 141 131 150 132 113 118 97 289
6 358 3 9 12 7 5 2 358 358 7 11 15 12 9 13 25 33 32 25 23 21 22 26 30 37 39 40 46 71 82 106 112 113 125 123 132 115 118 144 111 97 287
5 2 9 11 10 6 2 358 0 11 20 18 15 12 9 9 30 40 41 38 34 30 29 27 29 32 37 52 55 64 106 120 117 113 114 119 120 82 91 89 128 97 148
357 357 358 6 11 8 7 9 17 25 23 12 12 11 9 0 20 30 30 31 36 34 28 47 50 47 43 52 74 84 83 94 151 145 109 104 120 142 136 128 130 156 118
356 356 25 22 18 7 13 18 30 30 25 25 21 14 20 32 35 30 36 34 47 49 42 40 46 46 47 49 65 84 102 104 117 96 117 136 114 121 158 135 121 102 141
15 22 17 20 19 21 27 29 26 18 18 26 32 37 49 46 45 48 50 46 57 56 52 42 47 48 48 50 58 69 83 105 99 95 105 111 99 94 108 128 125 116 108
16 34 38 32 33 31 31 28 27 26 27 36 38 35 34 36 44 54 55 57 59 51 48 49 40 46 50 57 56 54 66 80 87 95 109 107 109 95 92 115 118 110 108
23 39 30 27 32 36 38 36 34 32 30 34 38 36 34 30 38 42 40 37 37 33 36 35 37 43 50 49 60 66 70 68 81 103 111 103 107 103 107 114 106 118 120
24 37 28 26 19 22 30 28 19 25 37 42 37 35 33 32 33 32 35 36 32 31 35 40 44 46 46 49 71 73 69 74 76 86 102 107 97 97 99 95 98 112 144
31 27 38 22 26 38 32 35 29 33 37 45 41 44 42 41 42 40 46 36 36 33 37 38 42 40 42 42 61 66 78 77 90 95 104 111 99 83 87 96 85 89 89
18 36 32 33 26 31 33 30 37 49 49 44 46 48 41 45 45 36 43 52 47 45 40 31 34 42 39 43 56 72 67 66 87 119 102 96 97 63 56 63 83 104 70
28 44 38 36 28 30 34 37 39 44 44 46 49 49 47 49 35 29 25 37 36 37 45 41 39 41 45 50 56 63 59 68 65 86 98 87 74 69 68 65 52 47 40
39 45 44 18 31 30 27 32 35 46 53 55 55 53 52 52 47 44 38 41 41 43 47 37 38 42 43 52 49 50 54 67 68 80 86 78 72 68 72 63 49 49 66
48 48 36 29 23 38 35 30 36 45 48 46 47 42 41 39 39 41 39 41 51 46 40 37 44 41 50 52 52 45 42 67 66 70 73 71 74 71 74 71 79 88 86
48 33 29 35 11 19 22 46 34 47 49 48 45 37 37 32 28 32 36 30 22 27 23 34 41 42 48 51 55 53 48 57 62 62 66 70 74 71 83 94 96 100 94
62 52 35 47 9 33 12 358 16 44 43 44 46 46 47 36 28 32 33 27 24 33 40 32 32 35 40 44 45 50 52 53 52 60 67 73 82 79 90 96 104 108 95
38 21 44 30 29 16 14 6 11 8 14 24 40 38 33 26 27 30 28 25 29 25 32 39 34 31 37 31 42 51 42 48 56 53 57 64 73 76 90 98 104 97 85
349 24 37 18 34 349 17 12 13 28 25 17 34 19 20 23 25 27 15 22 24 30 33 29 33 30 33 29 45 43 31 44 55 59 53 52 57 66 74 82 89 90 87
48 19 28 14 5 27 25 13 1 3 12 37 26 9 15 22 11 19 9 20 20 29 27 29 26 24 26 25 32 40 33 37 32 35 48 64 50 37 40 59 82 101 87
36 49 45 32 2 1 5 3 9 10 11 21 5 22 19 2 7 353 1 17 8 22 26 23 19 30 13 19 26 39 34 39 29 49 38 63 50 30 13 12 63 93 82
307 358 12 24 4 1 3 1 10 8 20 10 0 354 360 359 359 359 357 3 5 15 22 25 18 23 11 13 23 29 33 30 44 59 45 46 59 34 29 18 51 78 103
259 17 359 18 358 352 349 355 355 356 349 338 346 347 349 357 360 1 357 356 4 10 18 19 19 21 16 3 12 20 22 16 24 32 43 34 52 28 60 55 66 74 103
356 337 339 353 332 329 359 343 346 344 345 346 348 346 345 348 352 353 352 357 2 13 21 17 11 9 13 356 2 12 17 19 19 22 50 36 79 57 61 59 89 85 85
319 344 324 324 308 315 322 319 325 343 349 340 347 346 341 346 4 352 355 351 351 3 356 348 352 357 360 346 357 4 12 18 22 25 20 57 83 106 88 94 74 67 52
310 313 331 313 323 318 321 327 318 320 321 329 348 352 356 1 353 344 341 354 358 352 347 340 351 345 339 336 349 0 8 8 11 22 27 95 123 105 123 293 225 185 26
336 326 331 325 325 340 334 321 326 331 338 333 351 352 339 344 345 345 357 1 1 355 356 349 351 346 343 347 357 358 1 12 16 21 24 343 6 147 140 137 333 249 297